Hourly Data Report for June 27, 2021

SANIRAJAK AIRPORT
NUNAVUT
Current Station Operator: NAVCAN

68°46'33.000" N
81°14'33.000" W
9.10 m
2402354
71293
YUX

Download Data

Hourly Data (June 2021)
Hourly Data Report for June 27, 2021
TIME
LST
Temp Definition
°C
Dew Point Definition
°C
Rel Hum Definition
%
Precip. Amount Definition
mm

Wind Dir Definition
10's deg

Wind Spd Definition
km/h
Visibility Definition
km
Stn Press Definition
kPa
Hmdx Definition


Wind Chill Definition


Weather Definition


00:00 2.4 1.7 95 0.0 32 35 16.1 100.30     Rain
01:00 1.9 1.5 97 0.5 34 24 12.9 100.35     Rain
02:00 1.6 1.3 98 0.0 34 22 16.1 100.39     Rain
03:00 1.4 1.1 98 0.0 33 18 16.1 100.43     LegendNANA
04:00 2.0 1.6 97 0.0 33 21 16.1 100.45     LegendNANA
05:00 2.1 1.5 96 0.0 33 22 16.1 100.49     LegendNANA
06:00 3.2 2.3 94 0.0 35 21 16.1 100.49     LegendNANA
07:00 4.0 2.5 90 0.0 35 24 16.1 100.52     LegendNANA
08:00 3.8 2.5 91 0.0 36 21 16.1 100.57     LegendNANA
09:00 4.2 2.7 90 0.0 34 21 16.1 100.61     LegendNANA
10:00 5.3 3.3 87 0.0 35 18 16.1 100.63     LegendNANA
11:00 6.2 3.9 85 0.0 34 18 16.1 100.61     LegendNANA
12:00 6.7 4.3 85 0.0 33 18 16.1 100.63     LegendNANA
13:00 8.0 5.4 83 0.0 31 18 16.1 100.63     LegendNANA
14:00 8.2 5.3 82 0.0 31 22 16.1 100.63     LegendNANA
15:00 8.0 5.2 82 0.0 31 26 16.1 100.64     LegendNANA
16:00 8.8 5.7 81 0.0 30 21 16.1 100.65     LegendNANA
17:00 7.1 4.7 85 0.0 31 32 16.1 100.63     LegendNANA
18:00 6.1 4.1 87 0.0 31 32 16.1 100.66     LegendNANA
19:00 5.1 3.3 88 0.0 30 24 16.1 100.67     LegendNANA
20:00 4.9 3.2 89 0.0 31 37 16.1 100.64     LegendNANA
21:00 3.9 2.7 92 0.0 31 30 16.1 100.63     LegendNANA
22:00 3.4 2.4 93 0.0 30 32 16.1 100.59     LegendNANA
23:00 3.0 2.1 94 0.0 30 35 16.1 100.57     LegendNANA

Notes on Data Quality.

Legend

  • E = Estimated
  • M = Missing
  • NA = Not Available*
  • [empty] = Indicates an unobserved value
Date modified: